Location: Newark
(58.8333°N, 23.5833°E)
Time: 05:39:04
(UTC+00:00)

Tiros 1 despin weight - Pass Details

Date: 24 November 2019
Orbit: 594 x 642 km, 48.2° (Epoch: 08 December)

Event Time Altitude Azimuth Distance (km) Brightness Sun altitude
Rises 13:58:45 0° 258° (WSW) 2,834 ? -1.9°
Reaches altitude 10° 14:01:44 10° 237° (WSW) 1,935 ? -2.2°
Maximum altitude 14:04:29 16° 198° (SSW) 1,567 ? -2.5°
Drops below altitude 10° 14:07:15 10° 160° (SSE) 1,944 ? -2.8°
Sets 14:10:16 0° 139° (SE) 2,854 ? -3.1°
